Terug naar catalogus

STARLINK-5439

ActiefCommunicatieVLEO
NORAD 54783·PAYLOAD·🇺🇸 United States

Gelanceerd Dec 17, 2022 vanaf Cape Canaveral Space Force Station

Loading…

Volgende Passages (komende 24 uur)

TLE

VersSource: CelesTrak SupGP

Epoch: Sep 15, 2026, 01:59 UTC

1 54783C 22175AB  26258.08312500 -.00020024  00000+0 -64387-3 0  2584
2 54783  53.1580 245.0297 0001363  91.9134 153.6283 15.31714124    18

Volg STARLINK-5439 in realtime met AllMySat

Download on the App Store